EW4281 Weather Reports


time (UTC)temp
C
wind
direction
speed
KPH
gust
KPH
rain 1hr
cm
rain 24hr
cm
rain mn
cm
humidity
%
barometer
mb
20260505183544 16 221 4.8 17.7 0.00 0.00 0.00 35 997.6
20260505182548 16 206 4.8 14.5 0.00 0.00 0.00 34 997.8
20260505181544 16 239 1.6 14.5 0.00 0.00 0.00 33 997.6
20260505180605 16 184 4.8 14.5 0.00 0.00 0.00 33 997.7
20260505175600 16 224 3.2 14.5 0.00 0.00 0.00 33 997.7
20260505174558 17 229 1.6 14.5 0.00 0.00 0.00 32 998.2
20260505173614 17 239 1.6 9.7 0.00 0.00 0.00 34 998.4
20260505172611 15 184 1.6 9.7 0.00 0.00 0.00 35 998.2
20260505171624 14 261 1.6 8.0 0.00 0.00 0.00 37 998.5
20260505170612 13 158 0.0 6.4 0.00 0.00 0.00 39 998.5
20260505165538 13 265 1.6 8.0 0.00 0.00 0.00 40 998.8
20260505164542 12 170 3.2 9.7 0.00 0.00 0.00 41 999.0
20260505162440 12 190 0.0 4.8 0.00 0.00 0.00 40 999.0
20260505161426 12 220 0.0 6.4 0.00 0.00 0.00 41 999.1
20260505152002 11 285 0.0 3.2 0.00 0.00 0.00 45 999.2
20260505150948 11 197 0.0 8.0 0.00 0.00 0.00 45 999.1
20260505113611 9 195 0.0 0.0 0.00 0.00 0.00 41 999.8
20260505112632 9 132 0.0 3.2 0.00 0.00 0.00 42 999.7
20260505102109 10 233 0.0 0.0 0.00 0.00 0.00 41 999.1
20260505101118 10 233 0.0 0.0 0.00 0.00 0.00 40 999.0
20260505094948 10 193 0.0 0.0 0.00 0.00 0.00 39 999.0
20260505093925 10 226 0.0 0.0 0.00 0.00 0.00 38 999.0
20260505091808 11 296 0.0 0.0 0.00 0.00 0.00 37 999.0
20260505090826 11 296 0.0 0.0 0.00 0.00 0.00 36 999.1
20260505085835 11 295 0.0 0.0 0.00 0.00 0.00 35 999.1
20260505084853 11 271 0.0 0.0 0.00 0.00 0.00 35 999.4
20260505083859 11 198 0.0 0.0 0.00 0.00 0.00 34 999.4
20260505082907 11 281 0.0 0.0 0.00 0.00 0.00 34 999.8
20260505081912 12 289 0.0 3.2 0.00 0.00 0.00 33 1000.1
20260505080855 12 211 0.0 9.7 0.00 0.00 0.00 33 1000.0
20260505074723 12 289 0.0 8.0 0.00 0.00 0.00 32 1000.1
20260505073728 12 280 1.6 8.0 0.00 0.00 0.00 31 999.8
20260505071545 13 285 3.2 14.5 0.00 0.00 0.00 31 999.5
20260505070513 13 307 1.6 8.0 0.00 0.00 0.00 30 999.8
20260505065528 13 266 1.6 6.4 0.00 0.00 0.00 30 999.9
20260505064533 13 303 0.0 6.4 0.00 0.00 0.00 31 999.7
20260505063533 13 276 0.0 6.4 0.00 0.00 0.00 31 999.8
20260505061435 13 237 0.0 12.9 0.00 0.00 0.00 31 999.7
20260505060406 13 278 0.0 12.9 0.00 0.00 0.00 31 999.8
20260505055424 13 279 0.0 3.2 0.00 0.00 0.00 32 1000.0
20260505054412 13 224 0.0 3.2 0.00 0.00 0.00 32 999.7
20260505053419 13 219 0.0 0.0 0.00 0.00 0.00 32 999.6
20260505052404 13 225 0.0 1.6 0.00 0.00 0.00 32 999.6
20260505051429 13 131 0.0 1.6 0.00 0.00 0.00 32 999.6
20260505050402 14 42 0.0 3.2 0.00 0.00 0.00 31 999.6
20260505041202 15 273 0.0 4.8 0.00 0.00 0.00 29 999.8
20260505035027 15 284 0.0 6.4 0.00 0.00 0.00 28 1000.0
20260505034044 15 320 0.0 6.4 0.00 0.00 0.00 28 999.9
20260505033052 15 288 1.6 6.4 0.00 0.00 0.00 27 999.9
20260505032047 15 304 1.6 6.4 0.00 0.00 0.00 26 999.7
20260505031032 15 322 0.0 8.0 0.00 0.00 0.00 26 999.4
20260505030055 16 2 1.6 8.0 0.00 0.00 0.00 25 999.3
20260505025038 16 271 1.6 8.0 0.00 0.00 0.00 24 999.1
20260505021643 16 303 0.0 6.4 0.00 0.00 0.00 22 998.6
20260505015448 17 312 3.2 19.3 0.00 0.00 0.00 21 998.6
20260505013251 17 295 3.2 11.3 0.00 0.00 0.00 20 998.2
20260505012256 17 315 3.2 11.3 0.00 0.00 0.00 20 998.1
20260505011254 17 287 1.6 14.5 0.00 0.00 0.00 19 997.9
20260505010318 18 335 3.2 14.5 0.00 0.00 0.00 19 997.9
20260505004209 18 290 3.2 16.1 0.00 0.00 0.00 19 998.2
20260505003223 18 243 4.8 16.1 0.00 0.00 0.00 18 998.3
20260505002241 18 340 3.2 16.1 0.00 0.00 0.00 18 998.2
20260505001209 18 292 3.2 19.3 0.00 0.00 0.00 19 998.1
20260505000227 18 326 4.8 19.3 0.00 0.00 0.00 19 998.3
20260504235211 18 277 3.2 16.1 0.00 0.00 0.00 19 998.4
20260504234147 18 279 3.2 16.1 0.00 0.00 0.00 20 998.5
20260504233132 18 330 3.2 11.3 0.00 0.00 0.00 20 998.5
20260504232137 19 309 3.2 14.5 0.00 0.00 0.00 20 998.5
20260504231147 19 271 6.4 17.7 0.00 0.00 0.00 20 998.5
20260504230115 19 271 4.8 17.7 0.00 0.00 0.00 19 998.7
20260504225127 18 254 3.2 19.3 0.00 0.00 0.00 19 998.8
20260504224058 18 277 4.8 19.3 0.00 0.00 0.00 19 998.8
20260504221919 18 258 4.8 19.3 0.00 0.00 0.00 18 998.9
20260504220926 19 297 6.4 19.3 0.00 0.00 0.00 17 999.0
20260504215912 19 321 6.4 19.3 0.00 0.00 0.00 17 999.2
20260504214917 20 276 3.2 12.9 0.00 0.00 0.00 15 999.3
20260504213936 20 340 3.2 12.9 0.00 0.00 0.00 14 999.2
20260504212932 20 256 6.4 17.7 0.00 0.00 0.00 14 999.3
20260504211933 21 290 4.8 17.7 0.00 0.00 0.00 14 999.3
20260504210942 20 243 3.2 14.5 0.00 0.00 0.00 15 999.6
20260504205922 20 295 3.2 16.1 0.00 0.00 0.00 16 999.8
20260504204941 20 275 4.8 16.1 0.00 0.00 0.00 15 1000.0
20260504203957 21 204 4.8 16.1 0.00 0.00 0.00 17 1000.2
20260504202949 20 203 3.2 14.5 0.00 0.00 0.00 18 1000.1
20260504201919 20 287 4.8 14.5 0.00 0.00 0.00 19 1000.4
20260504200931 21 259 3.2 12.9 0.00 0.00 0.00 19 1000.3
20260504194850 21 271 4.8 17.7 0.00 0.00 0.00 19 1000.5
20260504193833 20 244 3.2 16.1 0.00 0.00 0.00 20 1000.6
20260504192802 21 289 4.8 12.9 0.00 0.00 0.00 18 1000.8
20260504190657 20 277 3.2 17.7 0.00 0.00 0.00 21 1000.8
20260504185710 20 161 3.2 19.3 0.00 0.00 0.00 20 1000.9
20260504184658 19 234 6.4 19.3 0.00 0.00 0.00 23 1001.1